Location: Newark
(50.0306°N, 2.3272°E)
Time: 08:10:41
(UTC+00:00)

A-11 Canister half - Pass Details

Date: 15 December 2019
Orbit: 1525 x 1684 km, 47.3° (Epoch: 28 January)

Event Time Altitude Azimuth Distance (km) Brightness Sun altitude
Rises 03:12:54 0° 197° (SSW) 4,870 - -41.8°
Reaches altitude 10° 03:16:38 10° 186° (S) 3,905 - -41.3°
Exits shadow 03:20:17 21° 168° (SSE) 3,156 10.5 -40.7°
Maximum altitude 03:24:33 27° 134° (SE) 2,796 10.5 -40.0°
Drops below altitude 10° 03:32:31 10° 81° (E) 3,951 11.8 -38.8°
Sets 03:36:18 0° 71° (ENE) 4,938 12.6 -38.2°
